This is the latest recevied weather packets stored in our database for station/object KK4WXG. If no packets are shown the sender has not sent any weather packets the latest 10 day(s).
| Time | Temp. | Humidity | Pressure | Rain* | Wind** | Luminosity | Snow |
|---|---|---|---|---|---|---|---|
| 1778066990 | 16.11° C | 87% | 1009.5 hPa | 1.78 mm | - | 13 W/m² | - |
| 1778066688 | 16.11° C | 86% | 1009.1 hPa | 1.27 mm | - | 10 W/m² | - |
| 1778066385 | 16.67° C | 84% | 1009.3 hPa | 1.78 mm | - | 11 W/m² | - |
| 1778066083 | 16.67° C | 82% | 1009.2 hPa | 1.78 mm | - | 17 W/m² | - |
| 1778065780 | 16.67° C | 81% | 1009.2 hPa | 0.51 mm | - | 19 W/m² | - |
| 1778065478 | 17.22° C | 79% | 1008.9 hPa | 1.27 mm | - | 11 W/m² | - |
| 1778065174 | 17.22° C | 76% | 1008.8 hPa | 0.51 mm | - | 10 W/m² | - |
| 1778064870 | 17.22° C | 76% | 1008.9 hPa | 0 mm | - | 5 W/m² | - |
| 1778064567 | 17.22° C | 76% | 1008.8 hPa | 0 mm | - | 7 W/m² | - |
| 1778064266 | 17.78° C | 74% | 1008.8 hPa | 0 mm | - | 6 W/m² | - |
| 1778063964 | 17.78° C | 74% | 1008.7 hPa | 0 mm | - | 10 W/m² | - |
| 1778063660 | 17.78° C | 74% | 1008.5 hPa | 0 mm | - | 7 W/m² | - |
| 1778063357 | 17.22° C | 74% | 1008.7 hPa | 0 mm | - | 4 W/m² | - |
| 1778063056 | 17.78° C | 75% | 1008.5 hPa | 0 mm | - | 3 W/m² | - |
| 1778062753 | 17.78° C | 74% | 1008.5 hPa | 0 mm | - | 3 W/m² | - |
| 1778062448 | 17.78° C | 73% | 1008.3 hPa | 0 mm | - | 2 W/m² | - |
| 1778062146 | 17.78° C | 73% | 1008 hPa | 0 mm | - | 1 W/m² | - |
| 1778061844 | 17.78° C | 73% | 1008.3 hPa | 0 mm | - | 1 W/m² | - |
| 1778061542 | 17.78° C | 72% | 1008.1 hPa | 0 mm | - | 0 W/m² | - |
| 1778061240 | 17.78° C | 71% | 1008.1 hPa | 0 mm | - | 0 W/m² | - |
| 1778060936 | 18.33° C | 69% | 1008.1 hPa | 0 mm | - | 0 W/m² | - |
| 1778060635 | 18.89° C | 67% | 1007.9 hPa | 0 mm | - | 0 W/m² | - |
| 1778060332 | 18.89° C | 66% | 1007.9 hPa | 0 mm | - | 0 W/m² | - |
| 1778060030 | 18.89° C | 65% | 1007.9 hPa | 0 mm | - | 0 W/m² | - |
| 1778059728 | 18.89° C | 65% | 1008 hPa | 0 mm | - | 0 W/m² | - |
* Rain latest hour (hover to see other rain measurements)
** Current wind speed in m/s (hover to see current wind gust speed)